Weather History for Boulder Muni, Boulder, CO, CO

Change the Weather History Date:

Thursday, March 6, 2014

  Actual Average (KDEN) Record (KDEN)
Temperature  
Mean Temperature 50 °F 38 °F  
Max Temperature 64 °F 52 °F 75 °F (1972)
Min Temperature 35 °F 24 °F -7 °F (1943)
Degree Days  
Heating Degree Days 16 27  
Month to date heating degree days 169  
Since 1 July heating degree days 4608  
Cooling Degree Days 0 0  
Month to date cooling degree days 0  
Year to date cooling degree days 0  
Moisture  
Dew Point 18 °F    
Average Humidity 27    
Maximum Humidity 60    
Minimum Humidity 14    
Precipitation  
Precipitation 0.00 in 0.03 in 1.32 in (1990)
Month to date precipitation 0.12  
Year to date precipitation 0.90  
Snow  
Snow 0.00 in - - ()
Month to date snowfall  
Since 1 July snowfall  
Snow Depth -    
Sea Level Pressure  
Sea Level Pressure 29.86 in    
Wind  
Wind Speed 8 mph (WSW)    
Max Wind Speed 20 mph    
Max Gust Speed 28 mph    
Visibility 10 miles    
Events      
T = Trace of Precipitation, MM = Missing Value Source: NWS Daily Summary

Daily Weather History Graph

Daily Weather History Graph

Search for Another Location

Airport:

Trip Planner

Search our weather history database for the weather conditions in past years. The results will help you decide how hot, cold, wet, or windy it might be!

Date:

Astronomy

Mar. 06, 2014 Rise Set
Actual Time 6:26 AM MST 5:58 PM MST
Civil Twilight 5:59 AM MST 6:25 PM MST
Nautical Twilight 5:28 AM MST 6:56 PM MST
Astronomical Twilight 4:56 AM MST 7:28 PM MST
Moon 9:36 AM MST (3/6) No Moon Set
Length of Visible Light 12h 25m
Length of Day
11h 31m
Waxing Crescent, 33% of the Moon is Illuminated
Mar 6
Waxing Crescent
Mar 8
First Quarter
Mar 16
Full
Mar 23
Last Quarter
Mar 30
New

Hourly Weather History & Observations

Time (MST) Temp. Windchill Dew Point Humidity Pressure Visibility Wind Dir Wind Speed Gust Speed Precip Events Conditions
12:15 AM 37.4 °F 33.8 °F 23.0 °F 56% 30.01 in 10.0 mi WSW 4.6 mph - N/A   Clear
12:35 AM 35.6 °F 29.9 °F 23.0 °F 60% 30.00 in 10.0 mi West 6.9 mph - N/A   Clear
12:55 AM 37.4 °F 34.9 °F 21.2 °F 52% 29.99 in 10.0 mi South 3.5 mph - N/A   Clear
1:15 AM 37.4 °F 31.4 °F 23.0 °F 56% 29.98 in 10.0 mi SW 8.1 mph - N/A   Clear
1:35 AM 39.2 °F 35.9 °F 21.2 °F 49% 29.97 in 10.0 mi WNW 4.6 mph - N/A   Clear
1:55 AM 37.4 °F 34.9 °F 23.0 °F 56% 29.96 in 10.0 mi NNW 3.5 mph - N/A   Clear
2:15 AM 37.4 °F 33.8 °F 21.2 °F 52% 29.96 in 10.0 mi West 4.6 mph - N/A   Clear
2:35 AM 39.2 °F 35.9 °F 21.2 °F 49% 29.95 in 10.0 mi WSW 4.6 mph - N/A   Clear
2:55 AM 41.0 °F 39.0 °F 19.4 °F 42% 29.94 in 10.0 mi West 3.5 mph - N/A   Clear
3:15 AM 37.4 °F 34.9 °F 21.2 °F 52% 29.93 in 10.0 mi WSW 3.5 mph - N/A   Clear
3:35 AM 37.4 °F - 19.4 °F 48% 29.93 in 10.0 mi Calm Calm - N/A   Clear
3:55 AM 42.8 °F 41.1 °F 17.6 °F 36% 29.92 in 10.0 mi South 3.5 mph - N/A   Clear
4:15 AM 46.4 °F 45.2 °F 15.8 °F 29% 29.91 in 10.0 mi WSW 3.5 mph - N/A   Clear
4:35 AM 51.8 °F - 15.8 °F 24% 29.91 in 10.0 mi West 19.6 mph 26.5 mph N/A   Clear
4:55 AM 51.8 °F - 17.6 °F 26% 29.92 in 10.0 mi West 13.8 mph 24.2 mph N/A   Clear
5:15 AM 51.8 °F - 15.8 °F 24% 29.91 in 10.0 mi West 16.1 mph 26.5 mph N/A   Clear
5:35 AM 51.8 °F - 15.8 °F 24% 29.91 in 10.0 mi West 18.4 mph - N/A   Clear
5:55 AM 51.8 °F - 14.0 °F 22% 29.91 in 10.0 mi West 9.2 mph 19.6 mph N/A   Clear
6:15 AM 51.8 °F - 14.0 °F 22% 29.91 in 10.0 mi West 11.5 mph 17.3 mph N/A   Clear
6:35 AM 53.6 °F - 12.2 °F 19% 29.91 in 10.0 mi West 15.0 mph 19.6 mph N/A   Clear
6:55 AM 51.8 °F - 14.0 °F 22% 29.91 in 10.0 mi West 13.8 mph 17.3 mph N/A   Clear
7:15 AM 53.6 °F - 14.0 °F 21% 29.91 in 10.0 mi West 17.3 mph 21.9 mph N/A   Clear
7:35 AM 55.4 °F - 12.2 °F 18% 29.91 in 10.0 mi SW 11.5 mph 17.3 mph N/A   Clear
7:55 AM 55.4 °F - 12.2 °F 18% 29.91 in 10.0 mi WSW 15.0 mph 21.9 mph N/A   Clear
8:15 AM 57.2 °F - 12.2 °F 17% 29.91 in 10.0 mi WSW 16.1 mph 27.6 mph N/A   Clear
8:35 AM 57.2 °F - 14.0 °F 18% 29.91 in 10.0 mi WSW 9.2 mph 16.1 mph N/A   Clear
8:55 AM 55.4 °F - 15.8 °F 21% 29.92 in 10.0 mi West 10.4 mph - N/A   Clear
9:15 AM 55.4 °F - 14.0 °F 20% 29.92 in 10.0 mi West 11.5 mph 19.6 mph N/A   Clear
9:35 AM 55.4 °F - 14.0 °F 20% 29.91 in 10.0 mi WSW 18.4 mph - N/A   Clear
9:55 AM 57.2 °F - 14.0 °F 18% 29.91 in 10.0 mi WSW 12.7 mph 25.3 mph N/A   Clear
10:15 AM 57.2 °F - 14.0 °F 18% 29.90 in 10.0 mi WSW 12.7 mph 24.2 mph N/A   Clear
10:35 AM 59.0 °F - 14.0 °F 17% 29.89 in 10.0 mi West 12.7 mph 21.9 mph N/A   Clear
10:55 AM 59.0 °F - 14.0 °F 17% 29.87 in 10.0 mi SW 12.7 mph 18.4 mph N/A   Clear
11:15 AM 59.0 °F - 14.0 °F 17% 29.86 in 10.0 mi WSW 10.4 mph 17.3 mph N/A   Clear
11:35 AM 59.0 °F - 14.0 °F 17% 29.86 in 10.0 mi Calm Calm - N/A   Clear
11:55 AM 59.0 °F - 21.2 °F 23% 29.86 in 10.0 mi NNE 4.6 mph - N/A   Clear
12:15 PM 55.4 °F - 24.8 °F 31% 29.85 in 10.0 mi NE 4.6 mph - N/A   Clear
12:35 PM 55.4 °F - 26.6 °F 33% 29.84 in 10.0 mi ENE 4.6 mph - N/A   Clear
12:55 PM 53.6 °F - 24.8 °F 33% 29.83 in 10.0 mi ESE 5.8 mph - N/A   Clear
1:15 PM 53.6 °F - 24.8 °F 33% 29.82 in 10.0 mi ESE 4.6 mph - N/A   Clear
1:35 PM 53.6 °F - 26.6 °F 35% 29.82 in 10.0 mi Calm Calm - N/A   Clear
1:55 PM 55.4 °F - 26.6 °F 33% 29.82 in 10.0 mi WNW 4.6 mph - N/A   Clear
2:15 PM 57.2 °F - 24.8 °F 29% 29.81 in 10.0 mi Calm Calm - N/A   Clear
2:35 PM 59.0 °F - 23.0 °F 25% 29.82 in 10.0 mi WNW 10.4 mph - N/A   Clear
2:55 PM 64.4 °F - 17.6 °F 16% 29.80 in 10.0 mi NW 10.4 mph 16.1 mph N/A   Clear
3:15 PM 64.4 °F - 17.6 °F 16% 29.80 in 10.0 mi NW 5.8 mph - N/A   Clear
3:35 PM 62.6 °F - 12.2 °F 14% 29.80 in 10.0 mi WSW 17.3 mph 24.2 mph N/A   Clear
3:55 PM 62.6 °F - 12.2 °F 14% 29.80 in 10.0 mi WSW 10.4 mph 19.6 mph N/A   Clear
4:15 PM 62.6 °F - 12.2 °F 14% 29.80 in 10.0 mi WSW 9.2 mph 18.4 mph N/A   Clear
4:35 PM 62.6 °F - 12.2 °F 14% 29.79 in 10.0 mi WSW 12.7 mph 21.9 mph N/A   Clear
4:55 PM 60.8 °F - 12.2 °F 15% 29.78 in 10.0 mi SW 6.9 mph - N/A   Clear
5:15 PM 60.8 °F - 12.2 °F 15% 29.77 in 10.0 mi WSW 9.2 mph - N/A   Clear
5:35 PM 60.8 °F - 12.2 °F 15% 29.78 in 10.0 mi SW 6.9 mph - N/A   Clear
5:55 PM 57.2 °F - 17.6 °F 21% 29.79 in 10.0 mi NW 3.5 mph - N/A   Clear
6:15 PM 57.2 °F - 14.0 °F 18% 29.79 in 10.0 mi West 5.8 mph - N/A   Clear
6:35 PM 55.4 °F - 15.8 °F 21% 29.79 in 10.0 mi West 6.9 mph - N/A   Clear
6:55 PM 57.2 °F - 15.8 °F 20% 29.78 in 10.0 mi WSW 5.8 mph - N/A   Clear
7:15 PM 55.4 °F - 17.6 °F 23% 29.78 in 10.0 mi NW 4.6 mph - N/A   Clear
7:35 PM 55.4 °F - 17.6 °F 23% 29.78 in 10.0 mi SW 11.5 mph - N/A   Clear
7:55 PM 57.2 °F - 15.8 °F 20% 29.79 in 10.0 mi SW 10.4 mph - N/A   Clear
8:15 PM 57.2 °F - 15.8 °F 20% 29.78 in 10.0 mi SW 11.5 mph - N/A   Clear
8:35 PM 57.2 °F - 15.8 °F 20% 29.78 in 10.0 mi WSW 12.7 mph 19.6 mph N/A   Clear
8:55 PM 55.4 °F - 19.4 °F 25% 29.80 in 10.0 mi WSW 6.9 mph - N/A   Clear
9:15 PM 55.4 °F - 17.6 °F 23% 29.79 in 10.0 mi SW 11.5 mph - N/A   Clear
9:35 PM 55.4 °F - 17.6 °F 23% 29.79 in 10.0 mi WSW 9.2 mph 21.9 mph N/A   Clear
9:55 PM 55.4 °F - 19.4 °F 25% 29.79 in 10.0 mi SW 8.1 mph - N/A   Clear
10:15 PM 55.4 °F - 19.4 °F 25% 29.79 in 10.0 mi SW 10.4 mph - N/A   Clear
10:35 PM 55.4 °F - 19.4 °F 25% 29.79 in 10.0 mi WSW 6.9 mph - N/A   Scattered Clouds
10:55 PM 53.6 °F - 19.4 °F 26% 29.78 in 10.0 mi WSW 10.4 mph - N/A   Clear
11:15 PM 53.6 °F - 21.2 °F 28% 29.79 in 10.0 mi West 9.2 mph 18.4 mph N/A   Clear
11:35 PM 53.6 °F - 21.2 °F 28% 29.79 in 10.0 mi West 5.8 mph - N/A   Clear
11:55 PM 53.6 °F - 21.2 °F 28% 29.78 in 10.0 mi WSW 3.5 mph - N/A   Scattered Clouds